Location: ?
(35.4554°N, 139.3092°E)
Time: 22:58:35
(UTC+00:00)

Meteor 2-20 - Pass Details

Date: 21 April 2021
Orbit: 939 x 958 km, 82.5° (Epoch: 10 May)

Event Time Altitude Azimuth Distance (km) Brightness Sun altitude
Exits shadow 18:31:17 21° 205° (SSW) 1,978 5.7 -17.8°
Maximum altitude 18:35:22 60° 279° (W) 1,083 4.5 -17.1°
Drops below altitude 10° 18:41:27 10° 359° (N) 2,694 7.2 -16.0°
Sets 18:44:01 0° 3° (N) 3,644 7.9 -15.6°
